[[{"header":{"parameterUnit":"m.s-1","parameterCategory":1,"la1":30.2991,"la2":30.254,"lo1":-89.0895,"lo2":-89.0444,"dy":0.0017,"dx":0.0017,"nx":28,"ny":28,"refTime":"2024-03-31T09:00:00:Z","depth":0,"parameterNumber":2,"parameterNumberName":"U-component_of_WINDS"},"data":[0,0,0,0,0,0,0,0,0,0,0,0,0,0,0,0,0,0,0,0,0,0,0,0,0,0,0,0,0,0,0,0,0,0,0,0,0,0,0,0,0,0,0,0,0,0,0,0,0,0,0,0,0,0,0,0,0,0,-1.4649,-1.4649,0,-1.4685,-1.4685,-1.4686,-1.4669,-1.4668,-1.4667,-1.4666,-1.4702,-1.4703,-1.4705,0,0,0,0,0,0,0,0,0,0,0,0,0,-1.4563,-1.4564,-1.4649,-1.4649,-1.465,-1.4685,-1.4685,-1.4686,-1.4669,-1.4668,-1.4667,-1.4666,-1.4701,-1.4703,-1.4705,0,0,0,0,0,0,0,0,0,0,0,0,0,-1.46,-1.4565,-1.4649,-1.4646,-1.4646,-1.4685,-1.4685,-1.4686,-1.467,-1.4668,-1.4667,-1.4666,-1.47,-1.4703,-1.4706,-1.4749,0,0,-1.4714,-1.4715,0,0,0,0,0,0,0,0,-1.4597,-1.4603,-1.4646,-1.4646,-1.4646,-1.4671,-1.4668,-1.4707,-1.467,-1.466,-1.4666,-1.4665,-1.4692,-1.4696,-1.4705,-1.4751,-1.4752,-1.4714,-1.4716,-1.4717,-1.4717,0,0,0,0,0,0,0,-1.4595,-1.4601,-1.4663,-1.4646,-1.4647,-1.4642,-1.4645,-1.4675,-1.4684,-1.4661,-1.466,-1.4665,-1.4692,-1.4703,-1.4706,-1.4753,-1.4714,-1.4716,-1.4718,-1.4719,-1.4833,-1.4834,0,0,0,0,0,0,-1.4593,-1.4599,-1.4662,-1.4664,-1.4618,-1.4644,-1.4648,-1.4664,-1.4683,-1.4685,-1.4666,-1.4664,-1.4699,-1.4703,-1.4707,-1.4757,-1.4717,-1.4719,-1.4721,-1.4831,-1.4833,-1.4835,0,0,0,0,0,0,-1.4591,-1.4599,-1.466,-1.4631,-1.4639,-1.4647,-1.4665,-1.4666,-1.4676,-1.4687,-1.4688,-1.4675,-1.4698,-1.4703,-1.4738,-1.4758,-1.472,-1.4723,-1.483,-1.4832,-1.4834,-1.4859,0,0,0,0,0,0,-1.4589,-1.4598,-1.4615,-1.4632,-1.464,-1.4692,-1.4667,-1.4668,-1.4681,-1.4679,-1.4696,-1.4697,-1.4697,-1.4734,-1.4741,-1.4761,-1.4725,-1.4828,-1.4831,-1.4833,-1.4857,-1.4862,-1.4867,0,0,0,0,0,-1.4586,-1.4621,-1.4616,-1.4624,-1.4662,-1.4693,-1.4698,-1.4698,-1.4683,-1.47,-1.4706,-1.4697,-1.4756,-1.4738,-1.4745,-1.4767,-1.4827,-1.483,-1.4833,-1.4854,-1.4861,-1.4867,0,0,0,0,0,0,-1.4607,-1.4623,-1.4618,-1.466,-1.4675,-1.469,-1.4711,-1.4705,-1.4724,-1.4721,-1.472,-1.4724,-1.4759,-1.4767,-1.4747,-1.4809,-1.4789,-1.4793,-1.4802,-1.4809,-1.4814,-1.481,-1.4727,0,0,0,0,0,-1.4616,-1.464,-1.4654,-1.4689,-1.4697,-1.4703,-1.4716,-1.4715,-1.473,-1.4737,-1.4746,-1.476,-1.4782,-1.4796,-1.4817,-1.4858,-1.486,-1.4876,-1.4881,-1.4885,-1.4889,-1.4909,-1.4916,-1.4845,-1.4845,-1.4845,0,0,-1.4636,-1.4648,-1.4664,-1.4694,-1.4705,-1.4729,-1.4709,-1.4735,-1.4752,-1.474,-1.4773,-1.4781,-1.4797,-1.4834,-1.4852,-1.4842,-1.4909,-1.489,-1.4893,-1.4894,-1.4913,-1.492,-1.4926,-1.4847,-1.4847,-1.4847,0,0,-1.4684,-1.4697,-1.4727,-1.4739,-1.4756,-1.476,-1.4767,-1.4783,-1.4787,-1.482,-1.4811,-1.4831,-1.4869,-1.488,-1.4891,-1.4942,-1.4933,-1.4949,-1.4974,-1.4994,-1.5,-1.5005,-1.5021,-1.5027,-1.4953,-1.4953,-1.4953,0,-1.4706,-1.4743,-1.4743,-1.477,-1.4783,-1.4773,-1.4803,-1.4814,-1.4838,-1.4846,-1.4835,-1.4881,-1.4891,-1.4931,-1.4943,-1.4953,-1.4959,-1.4946,-1.4999,-1.5004,-1.5009,-1.5024,-1.5031,-1.4955,-1.4954,-1.4954,-1.4954,0,-1.4768,-1.4794,-1.4816,-1.4838,-1.4854,-1.4882,-1.4885,-1.4901,-1.4898,-1.4902,-1.4935,-1.4947,-1.4969,-1.4979,-1.4976,-1.5017,-1.501,-1.5,-1.4979,-1.5017,-1.5031,-1.5038,-1.4957,-1.4956,-1.4956,-1.4955,0,0,-1.483,-1.4852,-1.486,-1.4869,-1.4888,-1.4907,-1.4934,-1.4956,-1.4968,-1.4984,-1.5006,-1.5037,-1.5027,-1.5039,-1.5038,-1.5056,-1.5093,-1.5042,-1.5043,-1.505,-1.5136,-1.5143,-1.515,-1.5088,-1.5089,-1.509,-1.5134,0,-1.4878,-1.4926,-1.4926,-1.497,-1.4992,-1.4983,-1.5006,-1.502,-1.5024,-1.5043,-1.5048,-1.5069,-1.5055,-1.5062,-1.5079,-1.5085,-1.511,-1.5082,-1.5106,-1.5107,-1.5101,-1.5158,-1.5165,-1.5206,-1.514,-1.5141,-1.5142,0,-1.4941,-1.4958,-1.5004,-1.5018,-1.5027,-1.5048,-1.5067,-1.5086,-1.51,-1.5102,-1.5115,-1.511,-1.5136,-1.5116,-1.5151,-1.5132,-1.5142,-1.5146,-1.5148,-1.5148,-1.5125,-1.5158,-1.522,-1.5225,-1.5151,-1.515,-1.515,0,-1.4979,-1.5014,-1.5046,-1.5054,-1.5072,-1.5086,-1.5094,-1.5107,-1.5119,-1.5136,-1.5143,-1.5163,-1.5173,-1.5188,-1.5188,-1.5174,-1.5223,-1.5203,-1.5223,-1.5223,-1.5233,-1.5232,-1.5295,-1.5242,-1.5242,-1.5242,-1.5242,0,-1.5031,-1.5059,-1.5063,-1.5082,-1.5112,-1.5112,-1.5142,-1.5148,-1.516,-1.5179,-1.5173,-1.5191,-1.5191,-1.5209,-1.521,-1.5237,-1.5243,-1.5244,-1.5243,-1.5243,-1.5243,-1.5249,-1.5245,-1.5244,-1.5244,-1.5243,-1.5243,0,-1.5078,-1.5083,-1.5116,-1.5129,-1.5133,-1.5155,-1.5165,-1.5183,-1.5187,-1.5211,-1.5217,-1.5222,-1.5243,-1.5245,-1.527,-1.527,-1.5303,-1.53,-1.5298,-1.5297,-1.5317,-1.5314,-1.5384,-1.5393,-1.5336,-1.5337,-1.5337,0,-1.5111,-1.5132,-1.5147,-1.516,-1.5168,-1.5189,-1.5201,-1.5201,-1.5214,-1.5231,-1.5246,-1.5267,-1.5283,-1.5316,-1.5322,-1.534,-1.5337,-1.536,-1.5339,-1.5338,-1.5335,-1.5333,-1.5334,-1.5363,-1.5364,-1.5365,-1.5365,0,-1.5167,-1.5168,-1.5186,-1.5205,-1.522,-1.5235,-1.5249,-1.5259,-1.5261,-1.5276,-1.5297,-1.531,-1.5334,-1.5354,-1.5371,-1.5378,-1.5371,-1.5372,-1.5377,-1.5376,-1.5373,-1.5373,-1.5307,-1.537,-1.5369,-1.5369,-1.5369,-1.5368,-1.5207,-1.5224,-1.5237,-1.5257,-1.5268,-1.5281,-1.5297,-1.5303,-1.5321,-1.5341,-1.534,-1.5363,-1.5375,-1.5398,-1.5406,-1.5423,-1.5415,-1.5423,-1.5425,-1.5427,-1.5428,-1.5372,-1.5426,-1.5426,-1.5426,-1.5426,-1.5426,0,-1.5261,-1.5269,-1.5287,-1.5307,-1.5322,-1.5315,-1.533,-1.5343,-1.5363,-1.5375,-1.5391,-1.5415,-1.5433,-1.544,-1.5458,-1.547,-1.5467,-1.5475,-1.5473,-1.5474,-1.5435,-1.5427,-1.5477,-1.5477,-1.5477,-1.5477,-1.5477,-1.5477,-1.5291,-1.5319,-1.5321,-1.5354,-1.5362,-1.5384,-1.5393,-1.5404,-1.5414,-1.544,-1.5455,-1.546,-1.547,-1.5488,-1.5504,-1.5506,-1.5512,-1.552,-1.552,-1.5482,-1.5477,-1.5472,-1.5465,-1.5522,-1.5522,-1.5558,-1.5558,-1.5558]},{"header":{"parameterUnit":"m.s-1","parameterCategory":1,"la1":30.2991,"la2":30.254,"lo1":-89.0895,"lo2":-89.0444,"dy":0.0017,"dx":0.0017,"nx":28,"ny":28,"refTime":"2024-03-31T09:00:00:Z","depth":0,"parameterNumber":3,"parameterNumberName":"V-component_of_WINDS"},"data":[0,0,0,0,0,0,0,0,0,0,0,0,0,0,0,0,0,0,0,0,0,0,0,0,0,0,0,0,0,0,0,0,0,0,0,0,0,0,0,0,0,0,0,0,0,0,0,0,0,0,0,0,0,0,0,0,0,0,3.702,3.702,0,3.7043,3.7043,3.7043,3.7057,3.7057,3.7057,3.7058,3.7078,3.7078,3.7078,0,0,0,0,0,0,0,0,0,0,0,0,0,3.6987,3.6987,3.702,3.702,3.702,3.7043,3.7043,3.7043,3.7057,3.7057,3.7057,3.7058,3.7077,3.7078,3.7078,0,0,0,0,0,0,0,0,0,0,0,0,0,3.7005,3.6988,3.702,3.703,3.7031,3.7043,3.7043,3.7044,3.7057,3.7057,3.7058,3.7058,3.7077,3.7078,3.7079,3.708,0,0,3.7081,3.7081,0,0,0,0,0,0,0,0,3.7004,3.7006,3.7028,3.7029,3.7031,3.7047,3.7039,3.7056,3.7057,3.7047,3.7058,3.7058,3.7067,3.7069,3.7073,3.7081,3.7082,3.7081,3.7081,3.7081,3.7082,0,0,0,0,0,0,0,3.7002,3.7005,3.7029,3.7029,3.703,3.7033,3.7036,3.7042,3.7056,3.7048,3.7049,3.7052,3.7068,3.7072,3.7073,3.7083,3.7081,3.7081,3.7082,3.7082,3.7099,3.7099,0,0,0,0,0,0,3.7,3.7004,3.7028,3.7029,3.7017,3.7034,3.7037,3.7042,3.7056,3.7059,3.7052,3.7053,3.7071,3.7072,3.7074,3.708,3.7081,3.7082,3.7082,3.7099,3.7099,3.7099,0,0,0,0,0,0,3.6999,3.7002,3.7027,3.7017,3.7021,3.7034,3.704,3.7042,3.7046,3.7059,3.7061,3.7054,3.7071,3.7073,3.708,3.7081,3.7082,3.7083,3.7099,3.7099,3.7099,3.709,0,0,0,0,0,0,3.6998,3.7001,3.7002,3.7017,3.7021,3.7033,3.704,3.7043,3.7048,3.7049,3.7061,3.7063,3.7071,3.7079,3.7081,3.7082,3.7084,3.7099,3.7099,3.7099,3.7091,3.709,3.709,0,0,0,0,0,3.6997,3.6997,3.7002,3.7005,3.7022,3.7033,3.7035,3.7045,3.7048,3.7049,3.7058,3.7063,3.7081,3.708,3.7082,3.7083,3.7099,3.7099,3.7099,3.7091,3.709,3.709,0,0,0,0,0,0,3.6979,3.6999,3.7005,3.701,3.702,3.7035,3.7036,3.7043,3.7052,3.7052,3.7063,3.7066,3.7073,3.7078,3.7077,3.7088,3.709,3.7091,3.7084,3.7083,3.7083,3.7081,3.7084,0,0,0,0,0,3.6976,3.6984,3.7,3.7003,3.7009,3.7022,3.7027,3.7034,3.7044,3.7048,3.7057,3.7066,3.7074,3.7079,3.7087,3.7092,3.7096,3.7094,3.7094,3.7093,3.7094,3.71,3.7101,3.7099,3.7099,3.7099,0,0,3.6969,3.6981,3.6985,3.7001,3.7009,3.7017,3.7025,3.7032,3.7038,3.7049,3.7057,3.7064,3.7075,3.7083,3.7086,3.7088,3.7096,3.7093,3.7093,3.7094,3.7101,3.7101,3.7101,3.7099,3.7099,3.7099,0,0,3.6962,3.6971,3.6976,3.6986,3.7,3.701,3.7011,3.7027,3.7033,3.7042,3.7051,3.7058,3.7071,3.708,3.7086,3.7087,3.7093,3.7089,3.7086,3.7093,3.7093,3.7093,3.7096,3.7096,3.7089,3.7089,3.7089,0,3.6951,3.6964,3.6978,3.6986,3.6993,3.7006,3.7013,3.7021,3.7036,3.7041,3.7043,3.7062,3.707,3.7081,3.7082,3.7086,3.7089,3.7087,3.7092,3.7092,3.7093,3.7095,3.7096,3.7089,3.7089,3.7089,3.7089,0,3.6952,3.6961,3.6964,3.6982,3.699,3.6996,3.7011,3.7018,3.7026,3.7035,3.7046,3.7057,3.7069,3.7072,3.7078,3.7085,3.7086,3.709,3.7093,3.7092,3.7095,3.7096,3.7088,3.7088,3.7088,3.7088,0,0,3.6931,3.696,3.6961,3.6971,3.6989,3.6997,3.7005,3.7019,3.7026,3.7037,3.7045,3.7058,3.7063,3.707,3.7078,3.7083,3.7087,3.7087,3.7087,3.7088,3.7099,3.7097,3.7098,3.7092,3.7092,3.7092,3.7099,0,3.6927,3.6945,3.6959,3.6972,3.6982,3.6996,3.7004,3.7017,3.7027,3.7038,3.7048,3.7059,3.7063,3.7068,3.7074,3.7085,3.709,3.7085,3.71,3.7101,3.7098,3.7099,3.7096,3.7102,3.71,3.71,3.71,0,3.6924,3.6939,3.6953,3.6975,3.6979,3.6986,3.7003,3.7012,3.7028,3.7035,3.7046,3.7055,3.7066,3.7068,3.7085,3.7081,3.7089,3.7096,3.7096,3.7099,3.7101,3.7103,3.7104,3.7105,3.7101,3.7101,3.7101,0,3.691,3.6933,3.6945,3.6953,3.6978,3.6983,3.6994,3.701,3.7019,3.7033,3.7039,3.7053,3.7061,3.7073,3.7086,3.7086,3.7102,3.7105,3.711,3.711,3.7112,3.7112,3.7116,3.7115,3.7115,3.7115,3.7115,0,3.6905,3.6913,3.694,3.6947,3.6959,3.6976,3.6986,3.6998,3.7013,3.7024,3.7036,3.7046,3.7063,3.7075,3.7086,3.7099,3.7102,3.7109,3.7112,3.7109,3.7108,3.7114,3.7114,3.7115,3.7115,3.7115,3.7115,0,3.6891,3.6908,3.6924,3.6948,3.6954,3.6962,3.6983,3.6991,3.7004,3.7018,3.7022,3.7041,3.7057,3.7072,3.7091,3.7099,3.7113,3.7116,3.7109,3.711,3.7115,3.7115,3.7123,3.7127,3.7122,3.7122,3.7122,0,3.6886,3.6894,3.6921,3.693,3.6941,3.6955,3.6966,3.6984,3.6994,3.7016,3.7022,3.7039,3.7054,3.7078,3.7094,3.711,3.7115,3.7117,3.7117,3.7115,3.7117,3.7117,3.7119,3.7116,3.7116,3.7116,3.7116,0,3.6878,3.6887,3.6903,3.6923,3.6936,3.6951,3.6967,3.6974,3.6996,3.7007,3.7024,3.7036,3.7059,3.7076,3.7095,3.7106,3.7115,3.7116,3.7119,3.7115,3.7112,3.7116,3.7109,3.7116,3.7116,3.7116,3.7116,3.7116,3.6869,3.6878,3.69,3.6918,3.6933,3.6949,3.696,3.6976,3.6991,3.7013,3.7022,3.7041,3.706,3.7087,3.7098,3.7113,3.7115,3.7118,3.7119,3.7119,3.712,3.7109,3.7116,3.7116,3.7116,3.7116,3.7116,0,3.6863,3.6879,3.6895,3.692,3.6935,3.6945,3.6964,3.6976,3.6992,3.701,3.7026,3.7048,3.7066,3.7085,3.7105,3.7113,3.7118,3.7118,3.7118,3.7121,3.7116,3.7113,3.7114,3.7114,3.7114,3.7114,3.7114,3.7114,3.6861,3.6879,3.6892,3.6918,3.6933,3.6953,3.6964,3.698,3.6995,3.702,3.7036,3.7049,3.7068,3.709,3.7108,3.7113,3.712,3.7119,3.7126,3.7121,3.7121,3.7121,3.7118,3.712,3.7121,3.713,3.713,3.713]}]]